Location: Pilipovskiye Korichintsy
(49.1833°N, 27.4667°E)
Time: 20:16:55
(UTC+00:00)

N. Korean satellite - Visible Passes

Search period start: 21 September 2020 00:00
Search period end: 01 October 2020 00:00
Orbit: 455 x 503 km, 97.2° (Epoch: 21 September)

Date Brightness Start Highest point End Pass type
(mag) Time Alt. Az. Time Alt. Az. Time Alt. Az.
23 Sep 9.4 03:04:29 10° NE 03:07:29 23° E 03:10:28 10° SSE visible
24 Sep 10.0 02:39:34 10° ENE 02:41:15 13° E 02:42:54 10° ESE visible
26 Sep 8.6 03:19:31 10° NNE 03:22:54 34° E 03:26:12 10° SSE visible
27 Sep 9.7 02:54:07 10° NE 02:56:42 18° E 02:59:15 10° SE visible
29 Sep 7.6 03:34:40 10° NNE 03:38:14 52° E 03:41:43 10° S visible
30 Sep 9.1 03:09:00 10° NE 03:12:06 26° E 03:15:08 10° SSE visible
